Regional Weather Roundup
Issued by NWS

Home | Current Version | Previous Version | Text Only | Print | Product List | Glossary Off
Versions: 1 2 3 4 5 6 7 8 9 10 11 12 13 14 15 16 17 18 19 20 21 22 23 24 25 26 27 28 29 30 31 32 33 34 35 36 37 38 39 40 41 42 43 44 45 46 47 48 49 50

000
ASUS43 KLOT 192308
RWRIL

ILLINOIS REGIONAL WEATHER ROUNDUP
NATIONAL WEATHER SERVICE CHICAGO/ROMEOVILLE IL
500 PM CST FRI JAN 19 2018

NOTE: "FAIR" INDICATES FEW OR NO CLOUDS BELOW 12,000 FEET WITH NO
SIGNIFICANT WEATHER AND/OR OBSTRUCTIONS TO VISIBILITY.

* THESE STATIONS ARE NOT UNDER NWS QUALITY CONTROL. THEY ALSO MAY NOT
  REPORT WEATHER SUCH AS PRECIPITATION OR FOG.

ILZ001-002-007-009-015-016-024-200000-
NORTHWEST ILLINOIS

CITY           SKY/WX    TMP DP  RH WIND       PRES   REMARKS
MOLINE         FAIR      43  28  55 SW10      29.72F
STERLING*      FAIR      38  30  73 VRB6      29.73F WCI  33
SAVANNA*       FAIR      36  30  79 S8        29.71F WCI  29
$$

ILZ003-004-008-010-011-017-018-200000-
NORTH CENTRAL ILLINOIS

CITY           SKY/WX    TMP DP  RH WIND       PRES   REMARKS
ROCKFORD       CLOUDY    37  28  70 S13       29.73S WCI  29
FREEPORT*      FAIR      37  28  70 SW20G26   29.71F WCI  27
ROCHELLE*      FAIR      35  29  78 S15       29.73F WCI  26
DE KALB*       FAIR      36  30  80 S21       29.73F WCI  24
PERU*          FAIR      38  27  65 S13       29.77F WCI  30
$$

ILZ005-006-012>014-019>023-200000-
NORTHEAST ILLINOIS

CITY           SKY/WX    TMP DP  RH WIND       PRES   REMARKS
CHICAGO-OHARE  MOCLDY    38  27  64 S17G24    29.74F WCI  28
CHICAGO-MIDWAY MOCLDY    37  29  72 SW16G23   29.76F WCI  28
AURORA         FAIR      38  28  67 S14       29.76F WCI  30
LANSING*       FAIR      34  30  85 S15G21    29.81F WCI  24
JOLIET*        FAIR      39  31  71 S12G18    29.79F WCI  32
WAUKEGAN       FAIR      38  27  64 SW21G29   29.68F WCI  28
DUPAGE AIRPORT FAIR      35  29  78 S15       29.74F WCI  25
KANKAKEE*      FAIR     N/A N/A N/A SW14G21   29.84F
WHEELING       FAIR      39  27  62 S15       29.74F WCI  31
MORRIS*        FAIR      37  30  76 S13       29.78F WCI  28
ROMEOVILLE*    FAIR      37  30  76 S15       29.78F WCI  27
NORTHERLY ISL    N/A     37  26  65 S12         N/A  WCI  29
$$

LMZ740>746-200000-
SOUTHERN LAKE MICHIGAN

STATION/POSITION SKY/WX   TEMP    WIND        PRES    VSBY  WAVE
                          AIR SEA DIR/SP/G                  HT/PER
                          (F)     (DEG/KT/KT) (MB)    (MI)  (FT/S)
HARRISON CRIB              38     200/ 27/ 30   N/A
BURNHAM HARBOR             37     200/ 15/ 19   N/A
CALUMET HARBOR                                1007.5F
BURNS HARBOR               35     190/ 17/ 24 1009.5F
MICHIGAN CITY              35     180/ 16/ 19   N/A
$$

ILZ025>027-034>036-040-047-049-050-058-095>099-200000-
WEST-CENTRAL ILLINOIS

CITY           SKY/WX    TMP DP  RH WIND       PRES   REMARKS
QUINCY         CLOUDY    46  26  45 S14       29.82S
GALESBURG*     FAIR      42  31  64 S13       29.78S
MACOMB*        CLOUDY    46  28  51 SW17G24   29.81F
JACKSONVILLE*  CLOUDY    47  23  38 S12       29.86S
PITTSFIELD*    CLOUDY    49  26  40 S12       29.86S
$$

ILZ028>032-037-038-041>044-048-051>054-059>061-200000-
CENTRAL ILLINOIS

CITY           SKY/WX    TMP DP  RH WIND       PRES   REMARKS
PONTIAC        FAIR      39  32  75 S18       29.82F WCI  30
BLOOMINGTON    FAIR      38  30  73 S16       29.84F WCI  29
DECATUR        FAIR      39  30  70 S16       29.90S WCI  30
PEORIA         FAIR      43  27  53 S15       29.82S
LACON*         FAIR      43  25  49 SW12G21   29.78S
LINCOLN*       FAIR      43  31  64 S13       29.86S
SPRINGFIELD    FAIR      48  25  40 S13       29.88R
TAYLORVILLE    FAIR      39  28  64 S18       29.90F WCI  30
$$

ILZ033-039-045-046-055>057-062-063-200000-
EAST-CENTRAL ILLINOIS

CITY           SKY/WX    TMP DP  RH WIND       PRES   REMARKS
CHAMPAIGN      FAIR      35  28  75 S20       29.90S WCI  24
DANVILLE*      FAIR      35  25  69 S17       29.88F WCI  24
RANTOUL*       FAIR      37  31  78 S16       29.89S WCI  28
MATTOON        FAIR      37  26  64 S16G23    29.93R WCI  28
PARIS*         FAIR      34  27  75 S16       29.96S WCI  24
$$

ILZ079-100>102-200000-
SOUTHWEST ILLINOIS

CITY           SKY/WX    TMP DP  RH WIND       PRES   REMARKS
ALTON          MOCLDY    48  27  43 S14       29.92R
BELLEVILLE     CLOUDY    42  26  51 S15       29.94R
CAHOKIA*       CLOUDY    50  23  34 S9        29.93R
SPARTA*        CLOUDY    40  28  62 S14G21    29.99S
$$

ILZ064>066-069>071-074>076-080>082-084>086-088>090-092>094-200000-
SOUTH-CENTRAL ILLINOIS

CITY           SKY/WX    TMP DP  RH WIND       PRES   REMARKS
CARBONDALE     FAIR      38  25  59 S17G28    30.03F WCI  28
CAIRO*         FAIR      37  22  53 S10       30.10F WCI  30
EFFINGHAM*     FAIR      40  26  57 S10       29.98S
MARION         PTCLDY    37  21  52 S12G21    30.05F WCI  30
MT. VERNON     FAIR      38  25  59 S14G22    30.00F WCI  30
CENTRALIA*     CLOUDY    40  27  60 S16       29.97S
SALEM*         FAIR      41  25  53 S12       29.97S
METROPOLIS*    MOCLDY    40  21  47 S10       30.10F
$$

ILZ067-068-072-073-078-083-087-091-200000-
SOUTHEAST ILLINOIS

CITY           SKY/WX    TMP DP  RH WIND       PRES   REMARKS
LAWRENCEVILLE  FAIR      34  23  64 S16       30.03F WCI  24
FLORA*         FAIR      38  26  63 S12       29.99F WCI  30
FAIRFIELD*     FAIR      36  25  64 S9        30.01F WCI  29
HARRISBURG*    FAIR      39  23  52 S10       30.06S WCI  32
ROBINSON*      FAIR      34  24  66 S13       30.01F WCI  25
CARMI*         FAIR      35  24  63 S12       30.04F WCI  27
$$

ABBREVIATIONS USED IN REMARKS
   TC - TEMPERATURE IN CELSIUS
  WCI - WIND CHILL INDEX
   HX - HEAT INDEX
  VSB - VISIBILITY
$$




USA.gov is the U.S. government's official web portal to all federal, state and local government web resources and services.